Location: Cuiry
(49.3858°N, 3.7708°E)
Time: 05:50:38
(UTC+00:00)

COSMOS 2455 - Pass Details

Date: 12 January 2026
Orbit: 899 x 909 km, 67.1° (Epoch: 18 February)

Event Time Altitude Azimuth Distance (km) Brightness Sun altitude
Rises 19:28:25 0° 325° (NW) 3,549 6.4 -31.5°
Reaches altitude 10° 19:31:02 10° 330° (NNW) 2,604 5.6 -31.9°
Enters shadow 19:34:13 31° 347° (NNW) 1,560 4.1 -32.5°
